Regional Weather Roundup
Issued by NWS

Home | Current Version | Previous Version | Graphics & Text | Print | Product List | Glossary On
Versions: 1 2 3 4 5 6 7 8 9 10 11 12 13 14 15 16 17 18 19 20 21 22 23 24 25 26 27 28 29 30 31 32 33 34 35 36 37 38 39 40 41 42 43 44 45 46 47 48 49 50
011
ASUS43 KFSD 231410
RWRSD

WEATHER ROUNDUP FOR SOUTH DAKOTA
NATIONAL WEATHER SERVICE SIOUX FALLS SD
900 AM CDT TUE AUG 23 2016

NOTE: "FAIR" INDICATES FEW OR NO CLOUDS BELOW 12,000 FEET WITH NO
SIGNIFICANT WEATHER AND/OR OBSTRUCTIONS TO VISIBILITY.


SDZ001>005-009-010-012>017-231500-
NORTHWEST AND NORTH CENTRAL SOUTH DAKOTA

CITY           SKY/WX    TMP DP  RH WIND       PRES   REMARKS
BUFFALO          N/A     65  34  31 NW37G44   29.74R
FAITH            N/A     66  43  43 NW23      29.70R
MOBRIDGE       PTSUNNY   74  61  63 S8        29.62R
$$

SDZ012>016-024>037-041>051-057-063-072>074-231500-
SOUTHWEST AND SOUTH CENTRAL SOUTH DAKOTA

CITY           SKY/WX    TMP DP  RH WIND       PRES   REMARKS
RAPID CTY ARPT SUNNY     70  36  28 NW22      29.79R
PIERRE         SUNNY     75  61  61 S13       29.67R
CUSTER         SUNNY     72  29  20 W7        29.91R
ELLSWORTH AFB  SUNNY     70  36  28 NW32      29.79
PHILIP         SUNNY     73  60  63 SW12G20   29.71R
PINE RIDGE     SUNNY     69  42  37 W15G21    29.82R
WINNER         FAIR      75  61  61 S16G24    29.73F
$$

SDZ004>011-016>023-039-040-231500-
NORTHEAST SOUTH DAKOTA

CITY           SKY/WX    TMP DP  RH WIND       PRES   REMARKS
ABERDEEN       SUNNY     72  60  66 S20G26    29.68F
WATERTOWN      SUNNY     72  61  68 S18G26    29.79F
BROOKINGS      CLOUDY    68  62  81 S14       29.84F
SISSETON         N/A     73  61  65 S17       29.72F
$$

SDZ017-020-022-023-036>040-048>070-231500-
SOUTHEAST SOUTH DAKOTA

CITY           SKY/WX    TMP DP  RH WIND       PRES   REMARKS
SIOUX FALLS    PTSUNNY   71  64  78 S14       29.86F
HURON          SUNNY     72  60  66 S17G26    29.75S
CHAMBERLAIN    SUNNY     77  62  61 S14G20    29.73F
MITCHELL       MOSUNNY   71  62  73 S14       29.79F
YANKTON        PTSUNNY   70  61  73 SE10      29.83S
$$

ABBREVIATIONS USED IN REMARKS
   TC - TEMPERATURE IN CELSIUS
  WCI - WIND CHILL INDEX
   HX - HEAT INDEX
  VSB - VISIBILITY





USA.gov is the U.S. government's official web portal to all federal, state and local government web resources and services.